Location: Unspecified
(0.0000°N, 0.0000°E)
Time: 20:46:52
(UTC+00:00)

NOSS 2-1 (C) - Visible Passes

Search period start: 14 October 2019 00:00
Search period end: 24 October 2019 00:00
Orbit: 462 x 1742 km, 63.3° (Epoch: 06 October)

Date Brightness Start Highest point End Pass type
(mag) Time Alt. Az. Time Alt. Az. Time Alt. Az.
14 Oct 6.5 18:46:33 10° NNE 18:50:09 17° ENE 18:50:09 17° ENE visible
14 Oct 6.3 20:33:48 10° NNW 20:55:46 - SSE 20:37:43 34° NW visible
15 Oct 5.2 19:47:54 10° NNW 19:56:10 72° ENE 19:57:23 66° ESE visible
15 Oct 7.4 21:41:26 10° WNW 21:54:21 10° SSW 21:54:34 10° SSW visible
16 Oct 5.6 19:02:35 10° N 19:10:16 43° ENE 19:19:41 10° SE visible
16 Oct 6.7 20:53:31 10° NW 21:01:17 34° WSW 21:10:20 10° S visible
17 Oct 6.2 18:18:04 10° NNE 18:24:29 25° ENE 18:31:58 10° ESE visible
17 Oct 5.9 20:06:40 10° NW 20:15:00 57° WSW 20:25:09 10° S visible
18 Oct 5.4 19:20:29 10° NNW 19:28:52 90° E 19:39:19 10° SSE visible
18 Oct 7.7 21:15:50 10° W 21:20:36 15° WSW 21:25:43 10° SSW visible
19 Oct 5.5 18:34:53 10° N 18:42:54 56° ENE 18:52:51 10° SE visible
19 Oct 7.2 20:26:58 10° WNW 20:34:09 27° WSW 20:42:21 10° S visible
20 Oct 6.5 19:39:40 10° NW 19:47:49 45° WSW 19:57:33 10° S visible
21 Oct 5.7 18:53:11 10° NNW 19:01:36 73° WSW 19:12:00 10° SSE visible
21 Oct 8.1 20:52:13 10° WSW 20:53:32 10° WSW 20:54:54 10° SW visible
22 Oct 5.4 18:07:19 10° NNW 18:15:33 71° ENE 18:25:50 10° SSE visible
22 Oct 7.7 20:00:44 10° WNW 20:07:03 20° WSW 20:14:04 10° SSW visible
23 Oct 7.0 19:12:52 10° NW 19:20:39 35° WSW 19:29:47 10° S visible
